DW1232 Weather Reports


Display with metric or nautical units.
time (UTC)temp
F
wind
direction
speed
MPH
gust
MPH
rain 1hr
in
rain 24hr
in
rain mn
in
humidity
%
barometer
mb
20260506090432 52 38 3.0 8.0 0.00 0.00 0.00 87 1006.0
20260506085423 52 30 4.0 9.0 0.00 0.00 0.00 87 1006.0
20260506084426 52 0 4.0 10.0 0.00 0.00 0.00 86 1005.9
20260506083443 53 19 3.0 10.0 0.00 0.00 0.00 86 1006.0
20260506082455 53 51 3.0 10.0 0.00 0.00 0.00 86 1006.0
20260506081504 53 344 4.0 10.0 0.00 0.00 0.00 86 1005.8
20260506080504 53 78 3.0 10.0 0.00 0.00 0.00 86 1005.8
20260506072247 54 31 3.0 10.0 0.00 0.00 0.00 85 1005.6
20260506071219 55 0 3.0 10.0 0.00 0.00 0.00 85 1005.7
20260506070155 56 338 2.0 8.0 0.00 0.00 0.00 84 1005.3
20260506061024 58 76 3.0 8.0 0.00 0.00 0.00 81 1005.2
20260506044725 62 55 3.0 8.0 0.00 0.00 0.00 75 1005.2
20260506043720 62 347 4.0 9.0 0.00 0.00 0.00 75 1005.1
20260506042712 62 46 2.0 9.0 0.00 0.00 0.00 75 1005.0
20260506041700 62 40 3.0 7.0 0.00 0.00 0.00 75 1004.8
20260506040659 63 43 3.0 11.0 0.00 0.00 0.00 74 1004.8
20260506034529 64 19 4.0 11.0 0.00 0.00 0.00 72 1004.8
20260506033519 64 26 5.0 11.0 0.00 0.00 0.00 72 1004.6
20260506032510 64 46 4.0 11.0 0.00 0.00 0.00 73 1004.6
20260506031437 65 20 3.0 10.0 0.00 0.00 0.00 73 1004.5
20260506025317 67 103 2.0 6.0 0.00 0.00 0.00 73 1004.0
20260506024341 67 50 2.0 8.0 0.00 0.00 0.00 72 1003.9
20260506023405 68 61 2.0 8.0 0.00 0.00 0.00 72 1003.3
20260506022359 68 40 3.0 6.0 0.00 0.00 0.00 72 1003.3
20260506021349 69 22 2.0 10.0 0.00 0.00 0.00 71 1003.3
20260506020320 70 53 3.0 10.0 0.00 0.00 0.00 69 1003.0
20260506014149 74 5 1.0 5.0 0.00 0.00 0.00 68 1002.0
20260506013154 75 246 0.0 0.0 0.00 0.00 0.00 67 1001.4
20260506011044 75 254 0.0 0.0 0.00 0.00 0.00 65 1001.0
20260506010023 76 225 0.0 3.0 0.00 0.00 0.00 63 1000.7
20260506005034 76 225 0.0 2.0 0.00 0.00 0.00 62 1000.8
20260506004043 77 225 0.0 1.0 0.00 0.00 0.00 60 1000.8
20260506003029 78 225 0.0 3.0 0.00 0.00 0.00 61 1000.8
20260506002027 79 225 0.0 1.0 0.00 0.00 0.00 60 1000.9
20260506001013 79 225 0.0 1.0 0.00 0.00 0.00 60 1000.9
20260505234906 82 225 1.0 6.0 0.00 0.00 0.00 53 1001.0
20260505231531 83 223 2.0 6.0 0.00 0.00 0.00 52 1001.1
20260505230457 83 229 3.0 6.0 0.00 0.00 0.00 53 1001.0
20260505225437 83 213 2.0 6.0 0.00 0.00 0.00 55 1001.0
20260505223335 83 230 3.0 7.0 0.00 0.00 0.00 53 1001.1
20260505222310 84 233 3.0 8.0 0.00 0.00 0.00 52 1001.1
20260505221243 84 214 2.0 8.0 0.00 0.00 0.00 52 1001.2
20260505220231 84 200 2.0 7.0 0.00 0.00 0.00 56 1001.1
20260505215209 84 227 2.0 7.0 0.00 0.00 0.00 55 1001.3
20260505214205 85 182 2.0 7.0 0.00 0.00 0.00 55 1001.2
20260505213148 84 211 2.0 9.0 0.00 0.00 0.00 55 1001.3
20260505212141 84 232 4.0 9.0 0.00 0.00 0.00 56 1001.3
20260505203713 83 234 2.0 7.0 0.00 0.00 0.00 59 1001.9
20260505202737 83 217 3.0 7.0 0.00 0.00 0.00 57 1001.9
20260505201707 83 246 1.0 6.0 0.00 0.00 0.00 61 1002.1
20260505200659 83 238 2.0 8.0 0.00 0.00 0.00 59 1002.3
20260505195657 83 229 2.0 8.0 0.00 0.00 0.00 60 1002.3
20260505193609 82 222 2.0 7.0 0.00 0.00 0.00 60 1002.5
20260505191349 81 210 3.0 9.0 0.00 0.00 0.00 64 1003.0
20260505190405 81 286 4.0 8.0 0.00 0.00 0.00 66 1003.0
20260505185417 81 271 3.0 8.0 0.00 0.00 0.00 67 1003.0
20260505184403 80 273 5.0 8.0 0.00 0.00 0.00 68 1003.1
20260505182251 80 232 3.0 9.0 0.00 0.00 0.00 70 1003.3
20260505180204 78 173 5.0 10.0 0.00 0.00 0.00 72 1003.5
20260505175153 77 256 4.0 11.0 0.00 0.00 0.00 72 1003.6
20260505172948 76 263 5.0 9.0 0.00 0.00 0.00 76 1003.7
20260505171949 76 269 4.0 9.0 0.00 0.00 0.00 75 1003.8
20260505170958 76 230 4.0 13.0 0.00 0.00 0.00 76 1003.9
20260505165927 75 212 5.0 13.0 0.00 0.00 0.00 76 1003.9
20260505164912 75 225 5.0 13.0 0.00 0.00 0.00 77 1003.9
20260505162731 74 209 5.0 11.0 0.00 0.00 0.00 78 1003.6
20260505161750 74 181 5.0 12.0 0.00 0.00 0.00 81 1003.6
20260505160752 72 221 5.0 12.0 0.00 0.00 0.00 81 1003.7
20260505152745 70 214 5.0 11.0 0.00 0.00 0.00 84 1003.7
20260505150658 69 230 5.0 10.0 0.00 0.00 0.00 85 1003.6
20260505140422 66 235 4.0 9.0 0.00 0.00 0.00 89 1003.7
20260505124313 61 223 3.0 7.0 0.00 0.00 0.00 94 1003.1
20260505123338 60 239 3.0 7.0 0.00 0.00 0.00 94 1003.0
20260505122305 60 236 2.0 6.0 0.00 0.00 0.00 94 1002.9
20260505120126 60 229 2.0 6.0 0.00 0.00 0.00 94 1002.7
20260505114011 60 227 2.0 5.0 0.00 0.00 0.00 94 1002.5
20260505113000 60 228 2.0 5.0 0.00 0.00 0.00 93 1002.3
20260505111945 60 224 2.0 6.0 0.00 0.00 0.00 93 1002.4
20260505110951 60 219 2.0 6.0 0.00 0.00 0.00 93 1002.5
20260505101736 60 215 1.0 4.0 0.00 0.00 0.00 92 1002.4
20260505100709 61 214 1.0 6.0 0.00 0.00 0.00 92 1002.4
20260505095650 61 207 2.0 6.0 0.00 0.00 0.00 92 1002.5
20260505094651 61 225 1.0 6.0 0.00 0.00 0.00 92 1002.5
20260505093713 61 226 2.0 6.0 0.00 0.00 0.00 91 1002.5
20260505091606 61 223 2.0 7.0 0.00 0.00 0.00 91 1002.8